"datetime","# probes","# resolvers","can_ipv6","can_ipv6_prbs","can_tcp","can_tcp_prbs","can_tcp6","can_tcp6_prbs","does_ecs","does_ecs_prbs","does_flagday","does_flagday_prbs","does_rov4","does_rov4_prbs","does_rov6","does_rov6_prbs","does_qnamemin","doesnt_qnamemin","does_qnamemin_prbs","doesnt_qnamemin_prbs","does_nxdomain","doesnt_nxdomain","does_nxdomain_prbs","doesnt_nxdomain_prbs","has_ta_19036","hasnt_ta_19036","has_ta_19036_prbs","hasnt_ta_19036_prbs","has_ta_20326","hasnt_ta_20326","has_ta_20326_prbs","hasnt_ta_20326_prbs","can_rsamd5","cannot_rsamd5","broken_rsamd5","can_rsamd5_prbs","cannot_rsamd5_prbs","broken_rsamd5_prbs","can_dsa","cannot_dsa","broken_dsa","can_dsa_prbs","cannot_dsa_prbs","broken_dsa_prbs","can_rsasha1","cannot_rsasha1","broken_rsasha1","can_rsasha1_prbs","cannot_rsasha1_prbs","broken_rsasha1_prbs","can_dsansec3","cannot_dsansec3","broken_dsansec3","can_dsansec3_prbs","cannot_dsansec3_prbs","broken_dsansec3_prbs","can_rsansec3","cannot_rsansec3","broken_rsansec3","can_rsansec3_prbs","cannot_rsansec3_prbs","broken_rsansec3_prbs","can_rsasha256","cannot_rsasha256","broken_rsasha256","can_rsasha256_prbs","cannot_rsasha256_prbs","broken_rsasha256_prbs","can_rsasha512","cannot_rsasha512","broken_rsasha512","can_rsasha512_prbs","cannot_rsasha512_prbs","broken_rsasha512_prbs","can_eccgost","cannot_eccgost","broken_eccgost","can_eccgost_prbs","cannot_eccgost_prbs","broken_eccgost_prbs","can_ecdsa256","cannot_ecdsa256","broken_ecdsa256","can_ecdsa256_prbs","cannot_ecdsa256_prbs","broken_ecdsa256_prbs","can_ecdsa384","cannot_ecdsa384","broken_ecdsa384","can_ecdsa384_prbs","cannot_ecdsa384_prbs","broken_ecdsa384_prbs","can_ed25519","cannot_ed25519","broken_ed25519","can_ed25519_prbs","cannot_ed25519_prbs","broken_ed25519_prbs","can_ed448","cannot_ed448","broken_ed448","can_ed448_prbs","cannot_ed448_prbs","broken_ed448_prbs","can_gost","cannot_gost","broken_gost","can_gost_prbs","cannot_gost_prbs","broken_gost_prbs","can_sha384","cannot_sha384","broken_sha384","can_sha384_prbs","cannot_sha384_prbs","broken_sha384_prbs","is_internal","is_forwarding","is_external","is_internal_prbs","is_forwarding_prbs","is_external_prbs"
2019-01-28T23:59:50Z,20,20,20,20,20,20,19,19,0,1,20,20,0,0,0,0,1,19,1,19,0,20,0,20,0,0,0,0,0,0,0,0,19,1,0,19,2,1,19,1,0,19,2,1,19,1,0,19,1,1,19,1,0,19,2,0,20,0,0,20,1,1,19,1,0,19,1,1,19,1,0,19,1,0,1,19,0,2,19,0,19,1,0,19,1,1,19,1,0,19,1,0,1,19,0,1,19,0,0,20,0,0,20,0,1,19,0,1,19,0,19,1,0,19,1,0,19,1,0,19,2,1
2019-01-29T23:59:55Z,81,152,152,81,150,81,149,80,0,10,152,81,0,0,0,0,2,150,5,79,0,150,0,81,0,0,0,1,0,0,1,0,145,5,2,76,16,7,147,3,2,78,19,2,146,4,2,77,9,2,144,6,2,75,18,1,146,4,2,77,8,1,147,3,2,78,8,1,146,4,2,77,8,1,1,149,2,2,80,1,149,1,2,80,8,1,148,2,2,79,8,2,2,148,2,10,79,2,0,150,2,0,81,2,1,148,3,6,79,2,146,4,2,77,9,1,147,1,4,79,7,13
2019-01-30T23:59:59Z,89,163,163,89,163,89,162,88,1,11,163,89,0,0,0,0,1,162,5,88,0,163,0,89,0,0,0,1,0,0,1,0,158,4,1,85,15,8,158,5,0,85,21,0,160,3,0,87,7,0,158,5,0,85,20,0,159,4,0,86,7,0,159,4,0,86,7,0,160,3,0,87,7,0,1,162,0,2,88,0,159,4,0,86,8,0,159,4,0,86,9,0,1,162,0,11,88,0,0,163,0,0,89,0,2,161,0,8,87,1,158,5,0,86,9,0,159,2,2,86,8,15
2019-01-31T23:59:59Z,88,164,164,88,164,88,163,87,2,12,164,88,0,0,0,0,2,162,6,86,0,164,0,88,0,0,0,1,0,0,1,0,157,5,2,83,16,8,156,8,0,82,22,1,161,3,0,86,7,0,156,8,0,82,21,0,161,3,0,86,7,0,160,4,0,85,7,0,160,4,0,85,7,0,1,163,0,2,87,0,161,3,0,86,9,0,160,4,0,85,9,1,3,161,0,12,86,1,0,164,0,1,88,0,3,161,0,8,86,0,161,3,0,86,8,0,159,3,2,85,8,15
2019-02-01T23:59:59Z,84,162,162,84,162,84,161,83,0,10,162,84,0,0,0,0,1,161,6,83,0,162,1,84,0,0,0,1,0,0,1,0,157,5,0,80,16,7,156,6,0,79,19,1,158,4,0,82,7,1,157,5,0,80,17,2,160,2,0,83,6,1,160,2,0,83,6,1,159,3,0,82,6,1,1,161,0,2,83,1,159,3,0,82,7,1,159,3,0,82,7,1,2,160,0,11,82,1,0,162,0,0,84,1,1,160,1,6,82,3,158,4,0,81,9,1,157,1,4,82,7,14
2019-02-02T23:59:55Z,83,164,164,83,164,83,163,82,1,11,164,83,0,0,0,0,2,162,6,81,0,164,0,83,0,0,0,1,0,0,1,0,158,5,1,78,16,7,157,7,0,77,21,0,160,4,0,80,7,0,159,5,0,79,20,0,160,4,0,80,7,0,160,4,0,80,7,0,160,4,0,80,7,0,1,163,0,2,82,0,162,2,0,82,8,0,162,2,0,82,8,1,2,162,0,12,81,1,0,164,0,0,83,0,2,162,0,8,81,0,159,5,0,79,9,0,159,2,3,80,8,15
2019-02-03T23:59:59Z,86,166,166,86,166,86,165,85,1,10,166,86,0,0,0,0,1,165,5,85,0,166,0,86,0,0,0,1,0,0,1,0,160,5,1,81,15,6,160,6,0,81,19,0,163,3,0,84,7,0,161,5,0,82,18,0,163,3,0,84,7,0,162,4,0,83,7,0,163,3,0,84,7,0,1,165,0,2,85,0,162,4,0,83,8,0,162,4,0,83,8,0,2,164,0,11,84,0,0,166,0,0,86,0,2,163,1,7,83,1,163,3,0,84,8,0,161,2,3,83,8,14
2019-02-04T23:59:56Z,85,165,165,85,165,85,165,85,1,11,165,85,0,0,0,0,1,164,6,84,0,165,0,85,0,0,0,1,0,0,1,0,161,3,1,82,15,7,161,4,0,82,19,1,163,2,0,84,6,1,161,4,0,82,18,0,162,3,0,83,6,0,162,3,0,83,6,0,163,2,0,84,6,0,1,164,0,2,84,0,161,4,0,82,8,0,162,3,0,83,8,0,2,163,0,11,83,0,0,165,0,0,85,0,2,163,0,8,83,0,163,2,0,84,8,1,160,2,3,82,8,14
2019-02-05T23:59:59Z,86,168,168,86,168,86,167,86,1,10,168,86,0,0,0,0,1,167,6,85,0,168,0,86,0,0,0,1,0,0,1,0,163,4,1,82,15,6,164,4,0,83,19,0,164,4,0,83,7,1,163,5,0,82,19,0,167,1,0,86,7,1,166,2,0,85,6,1,167,1,0,86,6,1,1,167,0,3,85,0,165,3,0,84,8,1,165,3,0,84,7,0,3,165,0,12,83,0,0,168,0,0,86,0,2,165,1,7,83,1,165,3,0,84,8,0,163,2,3,83,8,14
2019-02-06T23:59:55Z,84,165,165,84,165,84,164,83,1,10,165,84,0,0,0,0,0,165,5,84,0,165,0,84,0,0,0,1,0,0,1,0,159,5,1,79,15,6,160,5,0,80,19,0,160,5,0,80,8,1,160,5,0,80,18,0,162,3,0,82,6,0,163,2,0,83,6,0,163,2,0,83,6,0,1,164,0,2,83,0,161,4,0,81,8,0,162,3,0,82,8,0,2,163,0,11,83,0,0,165,0,0,84,0,2,163,0,7,82,0,160,5,0,80,9,0,160,2,3,81,8,13
2019-02-07T23:59:59Z,86,166,166,86,166,86,165,85,2,11,166,86,0,0,0,0,2,164,6,84,0,166,0,86,0,0,0,1,0,0,1,0,160,4,2,81,16,7,160,6,0,81,21,0,162,4,0,83,7,0,159,7,0,80,20,0,163,3,0,84,7,0,163,2,1,85,7,1,164,2,0,85,7,0,1,165,0,2,85,0,163,3,0,84,8,0,162,4,0,83,8,0,3,163,0,12,83,0,0,166,0,0,86,0,3,163,0,8,83,0,161,5,0,82,9,0,160,3,3,82,9,14
2019-02-08T23:59:59Z,86,167,167,86,167,86,166,85,2,11,167,86,0,0,0,0,2,165,6,84,0,167,0,86,0,0,0,1,0,0,1,0,160,5,2,80,16,7,160,7,0,80,21,0,163,4,0,83,7,0,159,8,0,79,20,0,164,3,0,84,7,0,164,3,0,84,7,0,163,4,0,83,7,0,1,166,0,2,85,0,163,4,0,83,8,0,163,4,0,83,8,0,3,164,0,12,83,0,0,167,0,0,86,0,3,164,0,8,83,0,163,4,0,83,9,1,161,3,3,82,9,14
2019-02-09T23:59:55Z,85,168,168,85,168,85,167,84,1,10,168,85,0,0,0,0,1,167,5,84,0,168,0,85,0,0,0,1,0,0,1,0,163,4,1,81,14,6,163,5,0,81,18,0,165,3,0,83,6,0,164,4,0,82,17,0,166,2,0,84,6,0,166,2,0,84,6,0,164,4,0,82,7,0,1,167,0,2,84,0,165,3,0,83,8,0,165,3,0,83,8,0,3,165,0,11,82,0,0,168,0,0,85,0,2,165,1,7,82,2,164,4,0,83,9,0,163,2,3,82,8,12
2019-02-10T23:59:59Z,85,164,164,85,164,85,163,84,2,11,164,85,0,0,0,0,1,163,4,84,0,164,0,85,0,0,0,1,0,0,1,0,158,4,2,80,14,7,159,5,0,81,19,0,161,3,0,83,6,0,159,5,0,81,18,0,161,3,0,83,6,0,161,3,0,83,6,0,161,3,0,83,6,0,1,163,0,2,84,0,162,2,0,84,8,0,162,2,0,84,7,0,3,161,0,12,82,0,0,164,0,0,85,0,3,160,1,8,81,1,160,4,0,82,8,0,159,2,3,82,8,14
2019-02-11T23:59:59Z,85,165,165,85,165,85,164,84,1,10,165,85,0,0,0,0,1,164,5,84,0,165,0,85,0,0,0,1,0,0,1,0,160,4,1,81,14,6,161,4,0,82,18,0,162,3,0,83,6,0,160,5,0,81,17,0,163,2,0,84,6,0,163,2,0,84,6,0,162,3,0,83,6,0,1,164,0,2,84,0,162,3,0,83,7,0,163,2,0,84,7,0,2,163,0,11,83,0,0,165,0,0,85,0,2,162,1,7,82,1,161,4,0,82,8,0,161,1,3,83,7,13
2019-02-12T23:59:59Z,83,162,162,83,162,83,161,82,1,10,162,83,0,0,0,0,0,162,5,83,0,162,0,83,0,0,0,1,0,0,1,0,157,4,1,79,15,6,157,5,0,79,19,0,159,3,0,81,7,1,159,3,0,81,17,0,160,2,0,82,6,0,159,3,0,81,6,0,160,2,0,82,6,0,1,161,0,2,82,0,159,3,0,81,8,0,159,3,0,81,8,0,1,161,0,10,82,0,0,162,0,0,83,0,2,160,0,7,81,0,158,4,0,80,8,0,158,1,3,81,7,13
2019-02-13T23:59:55Z,85,168,168,85,168,85,167,84,2,11,168,85,0,0,0,0,1,167,5,84,0,168,0,85,0,0,0,1,0,0,1,0,163,3,2,81,15,8,163,5,0,81,20,0,166,2,0,84,7,0,161,7,0,79,19,1,165,3,0,83,7,0,165,3,0,83,7,0,164,4,0,82,7,0,1,167,0,2,84,0,164,4,0,82,8,0,165,3,0,83,8,0,2,166,0,11,83,0,0,168,0,0,85,0,3,165,0,8,82,0,166,2,0,84,8,0,163,2,3,82,8,14
2019-02-14T23:59:54Z,84,163,163,84,163,84,162,83,2,13,163,84,0,0,0,0,0,163,4,84,0,163,0,84,0,0,0,1,0,0,1,0,159,2,2,81,16,8,158,5,0,80,21,1,161,2,0,83,8,1,158,5,0,80,20,0,161,2,0,83,8,0,161,2,0,83,8,1,160,3,0,82,8,0,1,162,0,2,83,0,160,3,0,82,9,0,160,3,0,82,9,0,2,161,0,11,82,0,0,163,0,0,84,0,3,160,0,9,81,0,159,4,0,81,9,0,158,2,3,81,8,15
2019-02-15T23:59:55Z,84,164,163,83,164,84,163,83,1,10,164,84,0,0,0,0,1,163,5,83,0,164,0,84,0,0,0,1,0,0,2,0,158,5,1,79,16,6,159,5,0,80,20,0,159,5,0,80,8,0,158,6,0,79,18,0,160,4,0,81,7,0,160,4,0,81,7,0,161,3,0,82,7,0,1,163,0,2,83,0,160,4,0,81,9,0,160,4,0,81,9,0,1,163,0,10,83,0,0,164,0,0,84,0,2,162,0,8,82,0,160,4,0,81,9,0,159,2,3,81,8,13
2019-02-16T23:59:59Z,85,165,164,84,165,85,164,84,2,12,165,85,0,0,0,0,0,165,4,85,0,165,0,85,0,0,0,1,0,0,1,0,159,4,2,80,15,8,159,6,0,80,20,1,162,3,0,83,8,1,159,6,0,80,18,0,162,3,0,83,7,1,161,4,0,82,8,1,161,4,0,82,7,0,1,164,0,3,84,0,161,4,0,82,9,1,162,3,0,83,8,0,2,163,0,10,83,0,0,165,0,0,85,0,3,162,0,8,82,0,160,5,0,81,9,1,159,3,3,81,9,13
2019-02-17T23:59:59Z,85,165,164,84,165,85,163,83,2,11,165,85,0,0,0,0,0,165,5,85,0,165,0,85,0,0,0,1,0,0,1,0,158,5,2,79,16,7,157,8,0,78,21,0,162,3,0,83,8,0,159,6,0,80,19,1,162,3,0,83,7,0,162,3,0,83,7,0,161,4,0,82,7,0,1,164,0,2,84,0,162,3,0,83,9,0,161,4,0,82,9,0,2,163,0,11,83,0,0,165,0,0,85,0,3,162,0,8,82,1,161,4,0,82,9,0,162,3,0,82,9,13
2019-02-18T23:59:54Z,84,164,163,83,164,84,162,82,1,11,164,84,0,0,0,0,0,164,5,84,0,164,0,84,0,0,0,1,0,0,1,0,159,4,1,80,17,6,159,5,0,80,20,0,160,4,0,81,8,1,161,3,0,82,19,0,161,3,0,82,9,0,160,4,0,81,8,1,161,3,0,82,9,0,1,163,0,3,83,0,160,4,0,81,10,1,159,5,0,80,10,0,1,163,0,10,83,0,0,164,0,0,84,1,2,162,0,7,82,0,159,5,0,80,10,0,162,2,0,82,8,13
2019-02-19T23:59:59Z,87,166,165,86,166,87,164,85,2,11,166,87,0,0,0,0,0,166,5,87,0,166,0,87,0,0,0,1,0,0,1,0,158,6,2,80,16,7,158,8,0,80,21,0,162,4,0,84,8,0,160,6,0,82,19,0,163,3,0,85,7,1,162,4,0,84,7,0,163,3,0,85,7,0,1,165,0,3,86,0,163,3,0,85,8,2,162,4,0,84,8,0,3,163,0,12,84,0,0,166,0,0,87,0,3,162,1,8,83,2,162,4,0,84,9,1,163,3,0,84,9,13
2019-02-20T23:59:59Z,86,167,164,85,165,86,164,85,3,12,167,86,0,0,0,0,0,165,6,86,0,165,0,86,0,0,0,1,0,0,1,0,158,5,2,80,16,7,159,6,0,81,21,0,161,4,0,83,7,0,158,7,0,80,20,0,162,3,0,84,7,1,161,4,0,83,7,1,161,4,0,83,7,0,1,164,0,3,85,0,161,4,0,83,9,1,162,3,0,84,9,1,3,162,0,12,83,1,0,165,0,1,86,0,3,162,0,8,83,0,161,4,0,83,9,0,161,4,0,82,10,13
2019-02-21T23:59:55Z,86,168,165,85,168,86,164,84,2,12,168,86,0,0,0,0,0,166,6,86,2,166,1,86,0,0,0,1,0,0,1,0,160,5,3,81,17,8,160,6,2,81,21,2,162,4,2,83,8,1,159,7,2,80,20,2,163,3,2,84,8,2,161,5,2,82,8,2,161,5,2,82,8,1,1,165,2,3,85,1,162,4,2,83,9,2,161,5,2,82,9,1,3,163,2,12,83,1,0,166,2,0,86,1,2,163,3,7,83,2,161,5,2,82,9,1,165,3,0,83,9,12
2019-02-22T23:59:59Z,85,162,161,84,162,85,160,83,1,11,162,85,0,0,0,0,0,162,4,85,0,162,0,85,0,0,0,1,0,0,1,0,158,3,1,82,15,6,157,5,0,81,19,0,159,3,0,83,7,0,156,6,0,80,19,1,158,4,0,82,8,0,157,5,0,81,8,0,159,3,0,83,8,0,1,161,0,2,84,0,158,4,0,82,9,0,158,4,0,82,9,0,2,160,0,11,83,0,0,162,0,0,85,0,2,159,1,7,82,1,158,4,0,82,8,0,160,2,0,83,8,12
2019-02-23T23:59:56Z,86,166,165,85,166,86,164,84,1,10,166,86,0,0,0,0,0,166,5,86,0,166,0,86,0,0,0,1,0,0,1,0,160,5,1,81,16,6,161,5,0,82,20,0,161,5,0,82,8,0,159,7,0,80,19,0,161,5,0,82,8,0,162,4,0,83,8,0,162,4,0,83,8,0,1,165,0,2,85,0,162,4,0,83,9,0,162,4,0,83,9,0,2,164,0,11,84,0,0,166,0,0,86,0,2,163,1,7,83,1,162,4,0,83,8,0,164,2,0,84,8,12
2019-02-24T23:59:59Z,86,167,166,85,166,86,164,84,1,11,167,86,0,0,0,0,1,166,5,85,0,167,0,86,0,0,0,1,0,0,1,0,161,5,1,81,15,7,162,5,0,82,20,0,163,4,0,83,7,0,163,4,0,83,19,0,165,2,0,85,7,1,164,3,0,84,7,1,164,3,0,84,7,0,1,166,0,3,85,0,163,4,0,83,8,1,165,2,0,85,8,0,3,164,0,12,83,0,0,167,0,0,86,0,2,164,1,8,83,1,164,3,0,84,8,0,165,2,0,84,8,13
2019-02-25T23:59:54Z,87,170,169,86,170,87,168,85,1,11,170,87,0,0,0,0,1,169,5,86,0,170,0,87,0,0,0,1,0,0,1,0,164,5,1,82,16,7,163,7,0,81,21,0,167,3,0,85,8,0,165,5,0,83,19,0,167,3,0,85,7,1,167,3,0,85,7,1,167,3,0,85,7,0,1,169,0,3,86,0,167,3,0,85,9,1,166,4,0,84,9,0,3,167,0,12,84,0,0,170,0,0,87,0,2,167,1,8,84,1,167,3,0,85,8,0,167,3,0,84,8,13
2019-02-26T23:59:55Z,88,169,168,87,169,88,167,86,2,13,169,88,0,0,0,0,0,169,6,88,0,169,0,88,0,0,0,1,0,0,1,0,164,4,1,84,17,8,163,6,0,83,22,1,166,3,0,86,8,1,162,7,0,82,20,2,165,4,0,85,8,0,165,4,0,85,8,0,164,5,0,84,8,0,1,168,0,2,87,0,165,4,0,85,8,0,165,4,0,85,8,0,3,166,0,13,85,0,0,169,0,0,88,0,2,166,1,8,85,1,165,4,0,85,9,0,166,3,0,85,9,13
2019-02-27T23:59:59Z,90,174,173,89,174,90,172,88,3,14,174,90,0,0,0,0,0,174,5,90,0,174,0,90,0,0,1,1,0,0,2,0,167,4,3,84,15,9,168,6,0,85,22,0,172,2,0,89,7,0,166,8,0,83,21,1,171,3,0,88,7,0,171,3,0,88,7,0,171,3,0,88,7,0,1,173,0,2,89,0,170,4,0,87,8,0,170,4,0,87,8,0,4,170,0,14,86,0,0,174,0,0,90,0,4,169,1,10,85,2,172,2,0,89,8,0,170,4,0,86,10,14
2019-02-28T23:59:56Z,90,174,173,89,174,90,172,88,2,12,174,90,0,0,0,0,0,174,5,90,0,174,0,90,0,0,0,1,0,0,1,0,167,5,2,84,15,8,168,6,0,85,21,0,172,2,0,89,7,0,169,5,0,86,20,1,171,3,0,88,7,0,171,3,0,88,7,0,170,4,0,87,7,2,1,172,1,2,89,1,169,5,0,86,9,0,170,4,0,87,9,0,3,171,0,12,87,0,0,174,0,0,90,0,3,170,1,9,86,1,170,4,0,87,8,0,171,3,0,87,10,12
2019-03-01T23:59:54Z,89,175,174,88,175,89,174,88,3,12,175,89,0,0,0,0,1,174,6,88,0,175,0,89,0,0,0,1,0,0,1,0,167,5,3,82,17,8,168,7,0,83,23,0,170,5,0,85,8,0,167,8,0,82,22,0,172,3,0,87,8,1,171,4,0,86,8,1,171,4,0,86,8,1,1,174,0,1,88,1,172,3,0,87,8,0,173,2,0,88,8,1,3,172,0,12,86,1,0,175,0,1,89,0,4,171,0,10,85,0,173,2,0,88,8,1,171,4,0,85,11,13
2019-03-02T23:59:59Z,88,172,171,87,172,88,171,87,2,11,172,88,0,0,0,0,0,172,5,88,0,172,0,88,0,0,0,1,0,0,1,0,166,4,2,83,17,7,164,8,0,81,22,0,169,3,0,86,7,0,166,6,0,83,20,0,168,4,0,85,7,0,168,4,0,85,7,0,169,3,0,86,7,0,1,171,0,1,87,0,168,4,0,85,9,0,168,4,0,85,9,0,2,170,0,11,86,0,0,172,0,0,88,0,3,169,0,9,85,0,168,4,0,85,9,0,169,3,0,85,10,12
2019-03-03T23:59:57Z,90,176,175,89,176,90,174,88,3,13,176,90,0,0,0,0,0,176,4,90,0,176,0,90,0,0,0,1,0,0,1,0,170,3,3,85,15,9,171,5,0,86,21,1,172,4,0,87,7,1,168,8,0,83,21,0,172,4,0,87,8,1,171,5,0,86,8,1,172,4,0,87,8,1,1,175,0,1,89,1,171,5,0,86,9,1,171,5,0,86,9,0,3,173,0,13,87,0,0,176,0,0,90,0,4,172,0,9,86,1,173,3,0,88,9,1,172,4,0,86,10,13
2019-03-04T23:59:59Z,89,173,172,88,173,89,171,87,3,12,173,89,0,0,0,0,0,173,5,89,0,173,0,89,0,0,0,1,0,0,1,0,164,6,3,81,16,8,166,7,0,83,22,0,169,4,0,86,8,0,165,8,0,82,21,0,169,4,0,86,8,1,169,4,0,86,8,1,169,4,0,86,8,1,1,172,0,2,88,0,169,4,0,86,9,1,169,4,0,86,9,0,4,169,0,13,85,0,0,173,0,0,89,0,4,168,1,9,84,1,168,5,0,85,9,0,169,4,0,85,10,13
2019-03-05T23:59:57Z,90,178,177,89,178,90,176,88,2,11,178,90,0,0,0,0,0,178,5,90,0,178,0,90,0,0,0,1,0,0,1,0,172,4,2,85,15,7,171,7,0,84,20,0,174,4,0,87,7,0,171,7,0,84,19,0,174,4,0,87,7,0,174,4,0,87,7,0,173,5,0,86,8,0,1,177,0,1,89,0,175,3,0,88,8,0,176,2,0,89,8,1,2,176,0,11,88,1,0,178,0,0,90,1,3,175,0,8,87,0,173,5,0,86,9,0,171,3,4,86,9,13
2019-03-06T23:59:59Z,91,178,177,90,178,91,176,89,2,11,178,91,0,0,0,0,1,177,5,90,0,178,0,91,0,0,0,1,0,0,1,0,171,5,2,85,15,7,172,6,0,86,20,0,175,3,0,89,7,0,173,5,0,87,19,0,175,3,0,89,7,1,175,3,0,89,7,1,175,3,0,89,7,0,1,177,0,1,90,1,173,5,0,87,9,1,173,5,0,87,9,0,3,175,0,12,88,0,0,178,0,0,91,0,3,174,1,9,87,1,175,3,0,89,8,1,171,3,4,87,9,13
2019-03-07T23:59:56Z,90,177,176,89,177,90,175,88,3,15,177,90,0,0,0,0,1,176,6,89,0,177,0,90,0,0,0,1,0,0,1,0,170,5,2,84,17,8,171,6,0,85,22,0,175,2,0,89,8,0,170,7,0,84,21,1,174,3,0,88,8,0,173,4,0,87,8,0,173,4,0,87,8,0,1,176,0,2,89,0,173,4,0,87,10,1,173,4,0,87,10,0,3,174,0,12,87,0,0,177,0,0,90,0,3,174,0,9,87,0,172,5,0,86,10,0,169,4,4,85,10,14
2019-03-08T23:59:59Z,89,175,174,88,175,89,172,86,3,13,175,89,0,0,0,0,0,175,4,89,0,175,0,89,0,0,0,1,0,0,1,0,167,5,3,82,14,9,168,7,0,83,21,0,171,4,0,86,7,0,168,7,0,83,20,0,172,3,0,87,7,0,172,3,0,87,7,1,171,4,0,86,7,0,1,174,0,2,88,0,170,5,0,85,9,0,171,4,0,86,9,0,3,172,0,12,86,0,0,175,0,0,89,0,4,171,0,10,85,0,172,3,0,87,8,0,167,4,4,84,10,14
2019-03-09T23:59:59Z,88,169,168,87,169,88,167,86,3,13,169,88,0,0,0,0,1,168,5,87,0,169,0,88,0,0,0,1,0,0,1,0,161,5,3,81,16,9,161,8,0,81,23,0,165,4,0,85,8,0,163,6,0,83,21,0,167,2,0,87,7,1,166,3,0,86,7,1,167,2,0,87,7,0,1,168,0,2,87,1,166,3,0,86,8,0,166,3,0,86,8,0,3,166,0,13,85,0,0,169,0,0,88,0,4,165,0,10,84,0,164,5,0,84,9,0,161,4,4,83,10,15
2019-03-10T23:59:59Z,90,173,172,89,173,90,171,88,3,13,173,90,0,0,0,0,0,173,5,90,0,173,0,90,0,0,0,1,0,0,1,0,166,4,3,84,16,9,166,7,0,84,23,0,169,4,0,87,7,0,163,10,0,81,23,0,169,4,0,87,9,0,167,6,0,85,10,0,168,5,0,86,9,0,1,172,0,2,89,0,171,2,0,89,8,0,170,3,0,88,8,1,3,170,0,13,87,1,0,173,0,0,90,1,4,169,0,10,86,0,169,4,0,87,12,0,165,4,4,85,10,15
2019-03-11T23:59:56Z,91,176,175,90,176,91,174,89,3,15,176,91,0,0,0,0,0,176,5,91,0,176,0,91,0,0,0,1,0,0,1,0,170,3,3,86,17,10,170,6,0,86,25,0,172,4,0,88,9,0,169,7,0,85,24,0,172,4,0,88,11,0,173,3,0,89,11,0,172,4,0,88,11,0,1,175,0,2,90,0,172,4,0,88,11,0,173,3,0,89,10,0,4,172,0,14,87,0,0,176,0,1,91,0,4,171,1,12,86,1,171,5,0,87,13,0,170,4,2,86,10,16
2019-03-12T23:59:59Z,91,173,172,90,173,91,169,89,3,14,173,91,0,0,0,0,1,172,5,90,0,173,0,91,0,0,0,1,0,0,1,0,165,5,3,84,16,9,166,7,0,85,23,0,171,2,0,90,9,0,165,8,0,84,23,0,169,4,0,88,9,0,170,3,0,89,10,0,169,4,0,88,8,0,1,172,0,2,90,0,169,4,0,88,8,0,170,3,0,89,8,0,3,170,0,14,88,0,0,173,0,0,91,0,4,169,0,11,87,0,169,4,0,88,15,0,165,4,4,85,11,16
2019-03-13T23:59:57Z,93,179,178,92,179,93,177,91,4,16,179,93,0,0,0,0,2,177,6,91,0,179,0,93,0,0,0,1,0,0,1,0,170,5,4,85,16,12,170,9,0,85,25,0,175,4,0,90,10,0,170,9,0,86,25,0,174,5,0,90,10,0,175,4,0,91,12,0,174,5,0,90,8,0,1,177,1,3,91,1,175,4,0,90,10,1,175,4,0,90,9,0,5,173,1,15,87,1,0,178,1,0,92,1,4,173,2,10,87,3,173,6,0,89,15,1,170,5,4,86,12,17
2019-03-14T23:59:56Z,90,171,170,89,171,90,169,88,4,17,171,90,0,0,0,0,2,169,7,88,0,171,0,90,0,0,0,1,0,0,1,0,162,5,4,83,17,12,162,9,0,83,26,1,167,4,0,88,11,1,164,7,0,84,24,0,167,4,0,87,9,1,167,4,0,87,11,0,168,3,0,88,9,1,1,169,1,2,88,2,168,3,0,88,9,0,166,5,0,86,9,0,4,166,1,14,85,1,0,170,1,0,89,1,4,166,1,10,85,1,166,5,0,86,13,1,162,5,4,83,13,16
2019-03-15T23:59:55Z,91,173,172,90,173,91,171,89,3,14,173,91,0,0,0,0,2,171,7,89,0,173,0,91,0,0,0,1,0,0,1,0,165,5,3,84,16,10,165,8,0,84,24,0,169,4,0,88,10,0,165,8,0,84,24,1,169,4,0,88,12,1,169,4,0,88,12,1,170,3,0,89,11,0,1,171,1,3,89,1,169,4,0,88,11,1,169,4,0,88,9,0,4,168,1,15,86,1,0,172,1,0,90,1,3,168,2,8,86,3,166,7,0,85,16,0,165,4,4,85,11,15
2019-03-16T23:59:59Z,91,172,171,90,172,91,170,89,3,15,172,91,0,0,0,0,2,170,6,89,0,172,0,91,0,0,0,1,0,0,1,0,163,5,4,83,16,11,164,8,0,84,24,1,169,3,0,89,10,1,163,9,0,84,24,0,166,6,0,87,13,0,167,5,0,88,12,0,167,5,0,88,9,0,1,170,1,2,89,1,168,4,0,88,11,0,169,3,0,89,10,0,4,167,1,13,86,1,0,171,1,0,90,2,4,167,1,8,86,1,167,5,0,87,13,0,163,5,4,84,12,15
2019-03-17T23:59:55Z,93,177,176,92,177,93,176,92,3,14,177,93,0,0,0,0,1,176,7,92,0,177,0,93,0,0,0,1,0,0,1,0,166,7,4,83,18,10,167,10,0,84,26,0,173,4,0,90,13,0,169,8,0,87,25,0,173,4,0,91,12,0,172,5,0,90,12,1,172,5,0,90,10,1,1,175,1,2,91,2,173,4,0,90,11,0,174,3,0,91,9,0,5,171,1,15,87,1,0,176,1,0,92,1,4,171,2,9,87,2,170,7,0,87,14,0,168,5,4,86,12,16
2019-03-18T23:59:59Z,91,174,173,90,174,91,172,89,3,15,174,91,0,0,0,0,2,172,6,89,0,174,0,91,0,0,0,1,0,0,1,0,166,4,4,84,17,10,166,8,0,84,24,0,171,3,0,89,8,0,165,9,0,83,24,0,169,5,0,87,12,0,168,6,0,86,12,0,168,6,0,86,9,0,1,172,1,2,89,1,171,3,0,89,10,0,171,3,0,89,8,0,4,169,1,13,86,1,0,173,1,0,90,1,4,169,1,8,86,2,169,5,0,87,12,0,166,4,4,85,11,16
2019-03-19T23:59:54Z,92,175,174,91,175,92,173,90,4,15,175,92,0,0,0,0,1,174,7,91,0,175,0,92,0,0,0,1,0,0,1,0,165,6,4,83,17,10,166,9,0,84,25,0,171,4,0,89,10,0,165,10,0,83,25,0,169,6,0,88,12,0,171,4,0,90,13,0,169,6,0,88,10,0,1,173,1,2,90,1,171,4,0,89,12,0,171,4,0,89,11,0,5,169,1,16,86,1,0,174,1,0,91,1,4,169,2,9,86,2,171,4,0,89,12,0,166,5,4,85,12,16
2019-03-20T23:59:53Z,90,173,173,90,173,90,171,89,4,15,173,90,0,0,0,0,2,171,7,88,0,173,0,90,0,0,0,1,0,0,1,0,164,5,4,83,16,8,165,8,0,84,25,0,168,5,0,87,8,0,163,10,0,81,24,0,168,5,0,86,11,0,168,5,0,86,13,0,168,5,0,86,10,0,1,171,1,2,88,1,169,4,0,87,10,0,171,2,0,89,14,0,4,168,1,15,85,1,0,172,1,0,89,1,4,168,1,10,85,1,166,7,0,85,17,0,165,4,4,84,11,16
2019-03-21T23:59:59Z,93,175,174,92,175,93,173,91,4,15,175,93,0,0,0,0,2,173,8,91,0,175,0,93,0,0,0,1,0,0,1,0,167,4,4,87,18,10,167,8,0,86,26,1,169,6,0,89,11,1,164,11,0,83,25,0,169,6,0,88,14,0,170,5,0,89,14,0,170,5,0,89,9,0,1,173,1,2,91,1,170,5,0,89,14,0,172,3,0,91,10,0,5,169,1,16,87,1,0,174,1,0,92,2,4,169,2,10,88,3,170,5,0,89,17,0,168,5,2,87,12,16
2019-03-22T23:59:55Z,90,171,170,89,169,90,167,88,3,13,171,90,0,0,0,0,2,169,7,88,0,169,0,90,0,0,0,1,0,0,1,0,161,4,6,83,18,9,160,9,2,81,26,1,163,6,2,84,13,1,161,8,2,82,24,1,165,4,2,86,12,1,164,5,2,85,12,1,164,5,2,85,12,1,1,167,3,2,88,2,164,5,2,86,13,1,166,3,2,87,11,2,4,164,3,14,85,3,0,168,3,0,89,3,4,163,4,8,85,4,165,4,2,86,13,1,165,4,2,86,10,16
2019-03-23T23:59:59Z,91,168,167,90,166,90,166,89,4,15,168,91,0,0,0,0,2,166,7,89,0,168,0,91,0,0,0,1,0,0,1,0,160,4,4,84,18,11,160,8,0,84,26,1,163,5,0,87,13,1,160,8,0,84,25,0,162,4,2,87,16,2,161,5,2,86,13,2,163,5,0,87,14,1,1,164,3,3,88,2,161,5,2,87,13,2,164,4,0,89,11,1,5,162,1,15,85,2,0,167,1,0,90,2,4,160,4,10,84,4,164,4,0,88,17,0,163,5,0,86,11,15
2019-03-24T23:59:57Z,90,168,167,89,168,90,166,88,3,14,168,90,0,0,0,0,2,166,7,88,0,168,0,90,0,0,0,1,0,0,1,0,161,4,3,84,19,9,160,8,0,83,25,0,163,5,0,86,14,0,160,8,0,83,24,0,162,6,0,86,14,0,162,6,0,86,14,0,165,3,0,88,12,0,1,166,1,3,88,1,163,5,0,86,12,0,165,3,0,88,9,0,4,163,1,14,85,1,0,167,1,0,89,1,4,162,2,8,84,3,162,6,0,85,16,0,164,4,0,86,10,15
2019-03-25T23:59:56Z,89,169,169,89,169,89,168,88,4,15,169,89,0,0,0,0,1,168,7,88,0,169,0,89,0,0,0,1,0,0,1,0,161,4,4,82,17,9,162,7,0,83,24,0,167,2,0,88,8,0,162,7,0,83,23,0,167,2,0,88,8,1,165,4,0,87,11,0,166,3,0,87,8,1,1,167,1,2,87,2,163,6,0,86,16,0,165,4,0,87,11,0,3,165,1,15,86,1,0,168,1,0,88,1,3,165,1,9,85,1,164,5,0,85,13,0,165,4,0,85,10,15
2019-03-26T23:59:56Z,89,169,169,89,169,89,168,88,4,15,169,89,0,0,0,0,1,168,7,88,0,169,0,89,0,0,0,1,0,0,1,0,161,4,4,82,17,9,162,7,0,83,24,0,167,2,0,88,8,0,162,7,0,83,23,0,167,2,0,88,8,1,165,4,0,87,11,0,166,3,0,87,8,1,1,167,1,2,87,2,163,6,0,86,16,0,165,4,0,87,11,0,3,165,1,15,86,1,0,168,1,0,88,1,3,165,1,9,85,1,164,5,0,85,13,0,165,4,0,85,10,15
2019-03-27T23:59:59Z,89,169,169,89,169,89,168,88,4,15,169,89,0,0,0,0,1,168,7,88,0,169,0,89,0,0,0,1,0,0,1,0,161,4,4,82,17,9,162,7,0,83,24,0,167,2,0,88,8,0,162,7,0,83,23,0,167,2,0,88,8,1,165,4,0,87,11,0,166,3,0,87,8,1,1,167,1,2,87,2,163,6,0,86,16,0,165,4,0,87,11,0,3,165,1,15,86,1,0,168,1,0,88,1,3,165,1,9,85,1,164,5,0,85,13,0,165,4,0,85,10,15
2019-03-28T23:59:59Z,89,169,169,89,169,89,168,88,4,15,169,89,0,0,0,0,1,168,7,88,0,169,0,89,0,0,0,1,0,0,1,0,161,4,4,82,17,9,162,7,0,83,24,0,167,2,0,88,8,0,162,7,0,83,23,0,167,2,0,88,8,1,165,4,0,87,11,0,166,3,0,87,8,1,1,167,1,2,87,2,163,6,0,86,16,0,165,4,0,87,11,0,3,165,1,15,86,1,0,168,1,0,88,1,3,165,1,9,85,1,164,5,0,85,13,0,165,4,0,85,10,15
2019-03-29T23:59:56Z,89,169,169,89,169,89,168,88,4,15,169,89,0,0,0,0,1,168,7,88,0,169,0,89,0,0,0,1,0,0,1,0,161,4,4,82,17,9,162,7,0,83,24,0,167,2,0,88,8,0,162,7,0,83,23,0,167,2,0,88,8,1,165,4,0,87,11,0,166,3,0,87,8,1,1,167,1,2,87,2,163,6,0,86,16,0,165,4,0,87,11,0,3,165,1,15,86,1,0,168,1,0,88,1,3,165,1,9,85,1,164,5,0,85,13,0,165,4,0,85,10,15
2019-03-30T23:59:56Z,89,169,169,89,169,89,168,88,4,15,169,89,0,0,0,0,1,168,7,88,0,169,0,89,0,0,0,1,0,0,1,0,161,4,4,82,17,9,162,7,0,83,24,0,167,2,0,88,8,0,162,7,0,83,23,0,167,2,0,88,8,1,165,4,0,87,11,0,166,3,0,87,8,1,1,167,1,2,87,2,163,6,0,86,16,0,165,4,0,87,11,0,3,165,1,15,86,1,0,168,1,0,88,1,3,165,1,9,85,1,164,5,0,85,13,0,165,4,0,85,10,15
2019-03-31T23:59:57Z,89,169,169,89,169,89,168,88,4,15,169,89,0,0,0,0,1,168,7,88,0,169,0,89,0,0,0,1,0,0,1,0,161,4,4,82,17,9,162,7,0,83,24,0,167,2,0,88,8,0,162,7,0,83,23,0,167,2,0,88,8,1,165,4,0,87,11,0,166,3,0,87,8,1,1,167,1,2,87,2,163,6,0,86,16,0,165,4,0,87,11,0,3,165,1,15,86,1,0,168,1,0,88,1,3,165,1,9,85,1,164,5,0,85,13,0,165,4,0,85,10,15
2019-04-01T23:59:54Z,94,176,175,93,176,94,175,93,4,15,176,94,0,0,0,0,2,174,8,92,0,176,0,94,0,2,1,3,1,0,3,0,163,8,5,83,19,11,165,11,0,84,27,1,169,6,1,88,12,1,164,11,1,84,26,1,169,6,1,88,12,1,170,5,1,89,10,1,170,5,1,90,10,1,1,173,2,2,91,2,169,6,1,88,13,1,172,3,1,91,9,1,4,170,2,14,88,2,0,174,2,0,92,2,4,171,1,9,89,1,172,4,0,91,11,0,171,5,0,89,11,16